weather.gov     
National Weather Service

Terminal Aerodrome Forecast
NWS Homepage
This page is being discontinued on March 12, 2014.
The same data is available at this site. Please update your bookmarks.
Thank you, and we apologize for the inconvenience.
Please send an email to SR-SRH.Webmaster@noaa.gov with any concerns.


Current Version
Previous Version:    01  02  03  04  05  06  07  08  09  10  11  12  13  14  
[Printable]
375
FTUS41 KBOX 210538
TAFHYA
TAF
KHYA 210538Z 2106/2206 00000KT P6SM SCT025
     FM211100 05004KT 5SM BR BKN080
     FM211200 05005KT P6SM OVC080=


375
FTUS41 KBOX 210538
TAFHYA
TAF
KHYA 210538Z 2106/2206 00000KT P6SM SCT025
     FM211100 05004KT 5SM BR BKN080
     FM211200 05005KT P6SM OVC080=




U.S. Dept. of Commerce
NOAA National Weather Service
1325 East West Highway
Silver Spring, MD 20910
E-mail: w-nws.webmaster@noaa.gov
Page last modified: May 16, 2007
NATIONAL WEATHER SERVICE: for Safety, for Work, for Fun - FOR LIFE